Zurück zum Katalog

GALILEO 19

2C5

AktivNavigationMEO
NORAD 43055·PAYLOAD·🇪🇺 EU

Gestartet Dec 12, 2017 von Guiana Space Centre

Loading…

Nächste Überflüge (nächste 24 Stunden)

TLE

AktuellSource: CelesTrak SupGP

Epoche: Sep 13, 2026, 23:59 UTC

1 43055C 17079A   26256.99979167  .00000000  00000+0  00000+0 0  2563
2 43055  55.0533 219.0638 0003310 283.9900 327.8595  1.70474024    16

Verfolge GALILEO 19 in Echtzeit mit AllMySat

Download on the App Store